Presque Isle, ME

7:37 PM EDT on September 25, 2017 (GMT -0400)
Northern Maine Regional At Presque Isle

Weather History for KPQI - April, 2014

Change the Weather History Date:

Tuesday, April 1, 2014

  Actual Average Record
Temperature  
Mean Temperature 34 °F -  
Max Temperature 44 °F 41 °F 66 °F (1986)
Min Temperature 23 °F 25 °F 3 °F (1969)
Degree Days  
Heating Degree Days 31    
Moisture  
Dew Point 9 °F    
Average Humidity 39    
Maximum Humidity 64    
Minimum Humidity 21    
Precipitation  
Precipitation 0.00 in - - ()
Sea Level Pressure  
Sea Level Pressure 30.11 in    
Wind  
Wind Speed 14 mph (North)    
Max Wind Speed 18 mph    
Max Gust Speed 25 mph    
Visibility 10 miles    
Events      
Averages and records for this station are not official NWS values.
T = Trace of Precipitation, MM = Missing Value Source: NWS Daily Summary

Daily Weather History Graph

Daily Weather History Graph

Search for Another Location

Airport or City:

Trip Planner

Search our weather history database for the weather conditions in past years. The results will help you decide how hot, cold, wet, or windy it might be!

Date:

Astronomy

Apr. 01, 2014 Rise Set
Actual Time 6:11 AM EDT 7:01 PM EDT
Civil Twilight 5:41 AM EDT 7:31 PM EDT
Nautical Twilight 5:04 AM EDT 8:08 PM EDT
Astronomical Twilight 4:26 AM EDT 8:47 PM EDT
Moon 7:05 AM EDT (4/1) 9:28 PM EDT (4/1)
Length of Visible Light 13h 50m
Length of Day
12h 49m
Waxing Crescent, 4% of the Moon is Illuminated
Apr 1
Waxing Crescent
Apr 7
First Quarter
Apr 15
Full
Apr 22
Last Quarter
Apr 29
New

Hourly Weather History & Observations

Time (EDT) Temp. Windchill Dew Point Humidity Pressure Visibility Wind Dir Wind Speed Gust Speed Precip Events Conditions
12:15 AM 28.4 °F 17.0 °F 17.6 °F 64% 30.11 in 10.0 mi NNE 15.0 mph 21.9 mph N/A   Overcast
12:35 AM 28.4 °F 16.6 °F 17.6 °F 64% 30.11 in 10.0 mi NNE 16.1 mph - N/A   Overcast
12:55 AM 28.4 °F 16.6 °F 15.8 °F 59% 30.12 in 10.0 mi North 16.1 mph 21.9 mph N/A   Mostly Cloudy
1:15 AM 26.6 °F 15.2 °F 14.0 °F 59% 30.11 in 10.0 mi North 13.8 mph 19.6 mph N/A   Mostly Cloudy
1:35 AM 26.6 °F 15.2 °F 12.2 °F 55% 30.11 in 10.0 mi North 13.8 mph - N/A   Partly Cloudy
1:55 AM 26.6 °F 14.7 °F 10.4 °F 51% 30.11 in 10.0 mi NNE 15.0 mph - N/A   Clear
2:15 AM 26.6 °F 16.2 °F 10.4 °F 51% 30.11 in 10.0 mi North 11.5 mph - N/A   Clear
2:35 AM 26.6 °F 15.2 °F 10.4 °F 51% 30.11 in 10.0 mi North 13.8 mph - N/A   Clear
2:55 AM 26.6 °F 15.2 °F 10.4 °F 51% 30.11 in 10.0 mi North 13.8 mph - N/A   Clear
3:15 AM 26.6 °F 14.7 °F 10.4 °F 51% 30.11 in 10.0 mi North 15.0 mph - N/A   Clear
3:35 AM 26.6 °F 14.3 °F 8.6 °F 47% 30.10 in 10.0 mi North 16.1 mph - N/A   Clear
3:55 AM 24.8 °F 12.4 °F 8.6 °F 50% 30.10 in 10.0 mi North 15.0 mph 19.6 mph N/A   Clear
4:15 AM 24.8 °F 12.9 °F 8.6 °F 50% 30.10 in 10.0 mi North 13.8 mph - N/A   Clear
4:35 AM 24.8 °F 11.9 °F 8.6 °F 50% 30.10 in 10.0 mi North 16.1 mph - N/A   Clear
4:55 AM 24.8 °F 11.9 °F 8.6 °F 50% 30.10 in 10.0 mi North 16.1 mph - N/A   Clear
5:15 AM 24.8 °F 12.4 °F 8.6 °F 50% 30.10 in 10.0 mi North 15.0 mph - N/A   Clear
5:35 AM 24.8 °F 12.4 °F 8.6 °F 50% 30.11 in 10.0 mi North 15.0 mph - N/A   Clear
5:55 AM 24.8 °F 11.9 °F 6.8 °F 46% 30.11 in 10.0 mi North 16.1 mph - N/A   Clear
6:15 AM 24.8 °F 11.5 °F 6.8 °F 46% 30.12 in 10.0 mi North 17.3 mph - N/A   Clear
6:35 AM 24.8 °F 11.9 °F 6.8 °F 46% 30.12 in 10.0 mi North 16.1 mph - N/A   Clear
6:55 AM 24.8 °F 11.5 °F 6.8 °F 46% 30.13 in 10.0 mi North 17.3 mph 23.0 mph N/A   Clear
7:15 AM 24.8 °F 11.9 °F 6.8 °F 46% 30.14 in 10.0 mi North 16.1 mph - N/A   Clear
7:35 AM 24.8 °F 11.9 °F 6.8 °F 46% 30.15 in 10.0 mi North 16.1 mph - N/A   Clear
7:55 AM 26.6 °F 13.8 °F 8.6 °F 47% 30.16 in 10.0 mi North 17.3 mph 23.0 mph N/A   Clear
8:15 AM 26.6 °F 13.8 °F 6.8 °F 43% 30.16 in 10.0 mi North 17.3 mph 24.2 mph N/A   Clear
8:35 AM 26.6 °F 13.8 °F 6.8 °F 43% 30.17 in 10.0 mi North 17.3 mph 24.2 mph N/A   Clear
8:55 AM 28.4 °F 15.8 °F 6.8 °F 40% 30.17 in 10.0 mi North 18.4 mph 25.3 mph N/A   Clear
9:15 AM 28.4 °F 15.8 °F 6.8 °F 40% 30.17 in 10.0 mi North 18.4 mph 25.3 mph N/A   Clear
9:35 AM 30.2 °F 18.9 °F 6.8 °F 37% 30.17 in 10.0 mi North 16.1 mph - N/A   Clear
9:55 AM 30.2 °F 20.2 °F 6.8 °F 37% 30.17 in 10.0 mi NNE 12.7 mph - N/A   Clear
10:15 AM 30.2 °F 18.9 °F 5.0 °F 34% 30.16 in 10.0 mi NNE 16.1 mph 23.0 mph N/A   Clear
10:35 AM 32.0 °F 22.1 °F 5.0 °F 32% 30.16 in 10.0 mi NNE 13.8 mph 23.0 mph N/A   Clear
10:55 AM 33.8 °F 22.8 °F 6.8 °F 32% 30.15 in 10.0 mi NNE 18.4 mph 23.0 mph N/A   Clear
11:15 AM 35.6 °F 25.9 °F 5.0 °F 28% 30.14 in 10.0 mi NNE 16.1 mph 20.7 mph N/A   Clear
11:35 AM 35.6 °F 25.9 °F 5.0 °F 28% 30.13 in 10.0 mi NNE 16.1 mph 20.7 mph N/A   Clear
11:55 AM 37.4 °F 28.5 °F 5.0 °F 26% 30.12 in 10.0 mi NNE 15.0 mph 20.7 mph N/A   Clear
12:15 PM 37.4 °F 28.5 °F 5.0 °F 26% 30.11 in 10.0 mi NNE 15.0 mph 19.6 mph N/A   Clear
12:35 PM 39.2 °F 30.8 °F 6.8 °F 26% 30.11 in 10.0 mi NNE 15.0 mph 20.7 mph N/A   Clear
12:55 PM 39.2 °F 31.2 °F 6.8 °F 26% 30.10 in 10.0 mi North 13.8 mph - N/A   Clear
1:15 PM 41.0 °F 32.8 °F 6.8 °F 24% 30.10 in 10.0 mi North 16.1 mph 21.9 mph N/A   Clear
1:35 PM 41.0 °F 34.3 °F 6.8 °F 24% 30.09 in 10.0 mi NE 11.5 mph 19.6 mph N/A   Clear
1:55 PM 42.8 °F 36.2 °F 6.8 °F 23% 30.09 in 10.0 mi North 12.7 mph - N/A   Clear
2:15 PM 42.8 °F 36.2 °F 8.6 °F 25% 30.08 in 10.0 mi North 12.7 mph - N/A   Clear
2:35 PM 42.8 °F 35.1 °F 6.8 °F 23% 30.08 in 10.0 mi North 16.1 mph - N/A   Clear
2:55 PM 42.8 °F 35.1 °F 8.6 °F 25% 30.08 in 10.0 mi North 16.1 mph - N/A   Clear
3:15 PM 44.6 °F 37.4 °F 6.8 °F 21% 30.07 in 10.0 mi North 16.1 mph 21.9 mph N/A   Clear
3:35 PM 44.6 °F 38.8 °F 8.6 °F 23% 30.07 in 10.0 mi North 11.5 mph - N/A   Clear
3:55 PM 44.6 °F 37.4 °F 6.8 °F 21% 30.06 in 10.0 mi North 16.1 mph 19.6 mph N/A   Clear
4:15 PM 44.6 °F 37.8 °F 8.6 °F 23% 30.06 in 10.0 mi North 15.0 mph 19.6 mph N/A   Clear
4:35 PM 44.6 °F 39.2 °F 8.6 °F 23% 30.06 in 10.0 mi NNE 10.4 mph - N/A   Clear
4:55 PM 44.6 °F 38.4 °F 8.6 °F 23% 30.06 in 10.0 mi NNE 12.7 mph 18.4 mph N/A   Clear
5:15 PM 44.6 °F 37.8 °F 8.6 °F 23% 30.06 in 10.0 mi North 15.0 mph 18.4 mph N/A   Clear
5:35 PM 44.6 °F 38.4 °F 10.4 °F 25% 30.06 in 10.0 mi North 12.7 mph - N/A   Clear
5:55 PM 44.6 °F 38.4 °F 8.6 °F 23% 30.07 in 10.0 mi North 12.7 mph - N/A   Clear
6:15 PM 44.6 °F 38.8 °F 8.6 °F 23% 30.07 in 10.0 mi NNE 11.5 mph - N/A   Clear
6:35 PM 42.8 °F 38.6 °F 8.6 °F 25% 30.07 in 10.0 mi North 6.9 mph - N/A   Clear
6:55 PM 41.0 °F 35.8 °F 12.2 °F 31% 30.08 in 10.0 mi North 8.1 mph - N/A   Clear
7:15 PM 39.2 °F 34.2 °F 10.4 °F 31% 30.09 in 10.0 mi NNE 6.9 mph - N/A   Clear
7:35 PM 39.2 °F 35.0 °F 10.4 °F 31% 30.10 in 10.0 mi ENE 5.8 mph - N/A   Clear
7:55 PM 37.4 °F 33.8 °F 14.0 °F 38% 30.11 in 10.0 mi ENE 4.6 mph - N/A   Clear
8:15 PM 33.8 °F 30.8 °F 12.2 °F 41% 30.12 in 10.0 mi WNW 3.5 mph - N/A   Clear
8:35 PM 33.8 °F - 12.2 °F 41% 30.13 in 10.0 mi Calm Calm - N/A   Clear
8:55 PM 28.4 °F - 15.8 °F 59% 30.13 in 10.0 mi Calm Calm - N/A   Clear
9:15 PM 28.4 °F 23.3 °F 15.8 °F 59% 30.14 in 10.0 mi East 4.6 mph - N/A   Clear
9:35 PM 28.4 °F - 15.8 °F 59% 30.14 in 10.0 mi Calm Calm - N/A   Clear
9:55 PM 30.2 °F - 10.4 °F 44% 30.15 in 10.0 mi Calm Calm - N/A   Clear
10:15 PM 26.6 °F - 10.4 °F 51% 30.15 in 10.0 mi Calm Calm - N/A   Clear
10:35 PM 24.8 °F - 12.2 °F 59% 30.15 in 10.0 mi Calm Calm - N/A   Clear
10:55 PM 28.4 °F 24.6 °F 10.4 °F 47% 30.16 in 10.0 mi WNW 3.5 mph - N/A   Clear
11:15 PM 28.4 °F 24.6 °F 6.8 °F 40% 30.15 in 10.0 mi North 3.5 mph - N/A   Clear
11:35 PM 28.4 °F 24.6 °F 3.2 °F 34% 30.15 in 10.0 mi NNE 3.5 mph - N/A   Clear
11:55 PM 23.0 °F 13.9 °F 6.8 °F 50% 30.15 in 10.0 mi NNW 8.1 mph - N/A   Clear